Regional Weather Roundup
Issued by NWS State College, PA

Home | Current Version | Previous Version | Text Only | Print | Product List | Glossary On
Versions: 1 2 3 4 5 6 7 8 9 10 11 12 13 14 15 16 17 18 19 20 21 22 23 24 25 26 27 28 29 30 31 32 33 34 35 36 37 38 39 40 41 42 43 44 45 46 47 48 49 50
000
ASUS41 KCTP 221003
RWRCTP

REGIONAL WEATHER ROUNDUP
NATIONAL WEATHER SERVICE STATE COLLEGE PA
500 AM EST MON JAN 22 2018

Note: "fair" indicates few or no clouds below 12,000 feet with no
significant weather and/or obstructions to visibility.

* = STATION THAT DOES NOT REPORT PRECIPITATION /E.G. RAIN...SNOW...ETC/
    THUNDER OR FOG.

PAZ002>004-007>009-013>016-020>023-029>032-221100-
WESTERN PENNSYLVANIA

CITY           SKY/WX    TMP DP  RH WIND       PRES   REMARKS
ERIE           CLOUDY    45  43  93 S8        30.00S FOG
MEADVILLE      FOG       42  42 100 CALM      30.00F VSB 1/4
FRANKLIN*      LGT RAIN  42  42 100 S6        30.02F VSB 1/2
NEW CASTLE     CLOUDY    45  45 100 CALM      30.02S FOG
BEAVER COUNTY  NOT AVBL
BUTLER*        CLOUDY    41  41 100 E3        30.03S FOG
PITTSBURGH INT LGT RAIN  45  44  97 SE3       30.02S
PITTSBURGH     CLOUDY    47  43  86 S7        30.02S
INDIANA*       CLOUDY    43  43 100 CALM      30.08S
LATROBE        CLOUDY    46  46 100 CALM      30.05S
WASHINGTON CO* CLOUDY    48  44  86 W3        30.06R
$$

PAZ004>006-010>012-017>019-024>028-033>037-041-042-045-046-049>053-221100-
CENTRAL PENNSYLVANIA

CITY           SKY/WX    TMP DP  RH WIND       PRES   REMARKS
BRADFORD       LGT RAIN  40  40 100 S5        30.02F VSB 1/2
DUBOIS           N/A    N/A N/A N/A MISG      30.02F
CLEARFIELD     FOG       38  38 100 NE3       30.05F VSB 1/4
JOHNSTOWN      CLOUDY    48  45  89 S6        30.05R
ALTOONA        CLOUDY    50  45  83 S6        30.06F
STATE COLLEGE  FOG       37  37 100 CALM      30.07S VSB 3/4
WILLIAMSPORT   FOG       34  34 100 CALM      30.10F VSB 3/4
SELINSGROVE    FOG       34  33  96 CALM      30.11F VSB 1/2
FT INDIANTOWN  CLOUDY    38  38 100 CALM      30.11F
CAPITAL CITY   CLOUDY    40  37  89 CALM      30.11S
HARRISBURG     CLOUDY    38  36  92 CALM      30.11S FOG
YORK           CLOUDY    40  37  89 CALM      30.10S
$$

PAZ038>040-043-044-047-048-054-055-060>062-067>071-221100-
EASTERN PENNSYLVANIA

CITY           SKY/WX    TMP DP  RH WIND       PRES   REMARKS
SCRANTON       CLOUDY    36  36 100 CALM      30.08S FOG
MOUNT POCONO   LGT RAIN  40  40 100 W5        30.07R FOG
ALLENTOWN      MOCLDY    39  35  86 NW3       30.12S FOG
QUAKERTOWN*    NOT AVBL
READING        CLOUDY    40  39  97 NE3       30.11S
LANCASTER      CLOUDY    40  39  97 CALM      30.11S
COATESVILLE    CLOUDY    43  39  87 CALM      30.12S
POTTSTOWN      CLOUDY    38  37  97 CALM      30.14R FOG
BLUE BELL      CLOUDY    37  36  93 CALM      30.14R
DOYLESTOWN     CLOUDY    41  38  89 CALM      30.12R
WILLOW GROVE   NOT AVBL
NORTH PHILA    CLOUDY    44  39  82 CALM      30.14S
PHILADELPHIA   LGT RAIN  42  35  76 SE3       30.14S
$$



USA.gov is the U.S. government's official web portal to all federal, state and local government web resources and services.